| time (UTC) | temp F | wind direction | speed MPH | gust MPH | rain 1hr in | rain 24hr in | rain mn in | humidity % | barometer mb |
| 20260831141613 | 51 | 124 | 0.0 | 0.0 | 0.00 | 0.00 | 0.00 | 69 | 1020.6 |
| 20260831140649 | 51 | 124 | 0.0 | 4.0 | 0.00 | 0.00 | 0.00 | 68 | 1020.5 |
| 20260831135630 | 51 | 124 | 0.0 | 6.0 | 0.00 | 0.00 | 0.00 | 67 | 1020.3 |
| 20260831134621 | 51 | 117 | 4.0 | 8.0 | 0.00 | 0.00 | 0.00 | 66 | 1020.2 |
| 20260831133613 | 51 | 127 | 5.0 | 9.0 | 0.00 | 0.00 | 0.00 | 66 | 1020.1 |
| 20260831132628 | 51 | 111 | 5.0 | 9.0 | 0.00 | 0.00 | 0.00 | 66 | 1020.2 |
| 20260831131619 | 50 | 138 | 5.0 | 9.0 | 0.00 | 0.00 | 0.00 | 67 | 1020.1 |
| 20260831130631 | 50 | 137 | 5.0 | 10.0 | 0.00 | 0.00 | 0.00 | 67 | 1020.1 |
| 20260831125614 | 50 | 131 | 6.0 | 9.0 | 0.00 | 0.03 | 0.00 | 67 | 1020.0 |
| 20260831124629 | 50 | 135 | 5.0 | 9.0 | 0.00 | 0.03 | 0.00 | 67 | 1020.0 |
| 20260831123620 | 50 | 130 | 5.0 | 8.0 | 0.00 | 0.03 | 0.00 | 68 | 1019.9 |
| 20260831122631 | 50 | 118 | 5.0 | 9.0 | 0.00 | 0.03 | 0.00 | 68 | 1019.9 |
| 20260831121626 | 50 | 129 | 5.0 | 10.0 | 0.00 | 0.03 | 0.00 | 68 | 1019.9 |
| 20260831120617 | 50 | 117 | 8.0 | 10.0 | 0.00 | 0.03 | 0.00 | 68 | 1019.9 |
| 20260831115620 | 50 | 123 | 7.0 | 10.0 | 0.00 | 0.03 | 0.00 | 67 | 1019.8 |
| 20260831114630 | 50 | 119 | 4.0 | 9.0 | 0.00 | 0.03 | 0.00 | 67 | 1019.8 |
| 20260831113622 | 50 | 128 | 7.0 | 10.0 | 0.00 | 0.03 | 0.00 | 66 | 1019.8 |
| 20260831112612 | 51 | 118 | 7.0 | 9.0 | 0.00 | 0.03 | 0.00 | 66 | 1019.8 |
| 20260831111623 | 51 | 136 | 4.0 | 8.0 | 0.00 | 0.03 | 0.00 | 66 | 1019.8 |
| 20260831110612 | 51 | 118 | 5.0 | 8.0 | 0.00 | 0.03 | 0.00 | 66 | 1019.8 |
| 20260831105617 | 52 | 129 | 4.0 | 9.0 | 0.00 | 0.03 | 0.00 | 66 | 1019.8 |
| 20260831104646 | 52 | 115 | 6.0 | 9.0 | 0.00 | 0.03 | 0.00 | 66 | 1019.8 |
| 20260831103614 | 52 | 150 | 5.0 | 10.0 | 0.00 | 0.03 | 0.00 | 65 | 1019.7 |
| 20260831102623 | 52 | 127 | 7.0 | 10.0 | 0.00 | 0.03 | 0.00 | 66 | 1019.8 |
| 20260831101638 | 52 | 125 | 8.0 | 10.0 | 0.00 | 0.03 | 0.00 | 64 | 1019.8 |
| 20260831100627 | 51 | 138 | 5.0 | 10.0 | 0.00 | 0.03 | 0.00 | 64 | 1019.6 |
| 20260831095629 | 51 | 115 | 7.0 | 11.0 | 0.00 | 0.03 | 0.00 | 63 | 1019.5 |
| 20260831094620 | 52 | 117 | 8.0 | 10.0 | 0.00 | 0.03 | 0.00 | 61 | 1019.4 |
| 20260831093614 | 52 | 116 | 7.0 | 9.0 | 0.00 | 0.03 | 0.00 | 60 | 1019.4 |
| 20260831092623 | 52 | 117 | 6.0 | 9.0 | 0.00 | 0.03 | 0.00 | 59 | 1019.4 |
| 20260831091612 | 53 | 110 | 8.0 | 11.0 | 0.00 | 0.03 | 0.00 | 58 | 1019.3 |
| 20260831090621 | 53 | 123 | 5.0 | 10.0 | 0.00 | 0.03 | 0.00 | 58 | 1019.4 |
| 20260831085628 | 52 | 122 | 6.0 | 11.0 | 0.00 | 0.06 | 0.00 | 57 | 1019.3 |
| 20260831084617 | 53 | 119 | 8.0 | 10.0 | 0.00 | 0.06 | 0.00 | 55 | 1019.3 |
| 20260831083626 | 53 | 132 | 5.0 | 9.0 | 0.00 | 0.06 | 0.00 | 55 | 1019.3 |
| 20260831082634 | 53 | 110 | 7.0 | 10.0 | 0.00 | 0.06 | 0.00 | 54 | 1019.2 |
| 20260831081627 | 53 | 121 | 6.0 | 9.0 | 0.00 | 0.06 | 0.00 | 53 | 1019.2 |
| 20260831080616 | 53 | 125 | 6.0 | 9.0 | 0.00 | 0.06 | 0.00 | 52 | 1019.2 |
| 20260831075638 | 53 | 132 | 4.0 | 9.0 | 0.00 | 0.11 | 0.00 | 53 | 1019.2 |
| 20260831074629 | 54 | 112 | 7.0 | 9.0 | 0.00 | 0.11 | 0.00 | 52 | 1019.2 |
| 20260831073622 | 54 | 123 | 6.0 | 9.0 | 0.00 | 0.11 | 0.00 | 52 | 1019.2 |
| 20260831072630 | 55 | 120 | 8.0 | 9.0 | 0.00 | 0.11 | 0.00 | 51 | 1019.2 |
| 20260831071620 | 55 | 117 | 7.0 | 11.0 | 0.00 | 0.11 | 0.00 | 50 | 1019.1 |
| 20260831070630 | 55 | 127 | 7.0 | 9.0 | 0.00 | 0.11 | 0.00 | 50 | 1019.1 |
| 20260831065615 | 55 | 117 | 0.0 | 3.0 | 0.00 | 0.11 | 0.00 | 55 | 1019.1 |
| 20260831064625 | 56 | 117 | 2.0 | 4.0 | 0.00 | 0.11 | 0.00 | 49 | 1019.1 |
| 20260831063615 | 57 | 116 | 5.0 | 9.0 | 0.00 | 0.11 | 0.00 | 47 | 1019.0 |
| 20260831062624 | 57 | 163 | 6.0 | 8.0 | 0.00 | 0.11 | 0.00 | 46 | 1019.1 |
| 20260831061638 | 58 | 119 | 6.0 | 10.0 | 0.00 | 0.11 | 0.00 | 46 | 1019.1 |
| 20260831060614 | 58 | 114 | 5.0 | 10.0 | 0.00 | 0.11 | 0.00 | 47 | 1019.1 |
| 20260831055635 | 58 | 141 | 7.0 | 10.0 | 0.00 | 0.11 | 0.11 | 47 | 1019.1 |
| 20260831054624 | 58 | 140 | 5.0 | 11.0 | 0.00 | 0.11 | 0.11 | 46 | 1019.0 |
| 20260831053632 | 58 | 98 | 8.0 | 13.0 | 0.00 | 0.11 | 0.11 | 45 | 1018.9 |
| 20260831052642 | 57 | 130 | 4.0 | 10.0 | 0.00 | 0.11 | 0.11 | 47 | 1018.9 |
| 20260831051636 | 57 | 115 | 8.0 | 11.0 | 0.00 | 0.11 | 0.11 | 48 | 1018.9 |
| 20260831050645 | 58 | 141 | 9.0 | 11.0 | 0.00 | 0.11 | 0.11 | 48 | 1018.8 |
| 20260831045627 | 58 | 124 | 8.0 | 11.0 | 0.00 | 0.11 | 0.11 | 49 | 1018.8 |
| 20260831044617 | 59 | 150 | 6.0 | 9.0 | 0.00 | 0.11 | 0.11 | 48 | 1018.8 |
| 20260831043631 | 59 | 144 | 5.0 | 9.0 | 0.00 | 0.11 | 0.11 | 49 | 1018.7 |
| 20260831042622 | 59 | 132 | 4.0 | 7.0 | 0.00 | 0.11 | 0.11 | 48 | 1018.6 |
| 20260831041613 | 60 | 133 | 6.0 | 10.0 | 0.00 | 0.11 | 0.11 | 51 | 1018.6 |
| 20260831040624 | 60 | 124 | 7.0 | 10.0 | 0.00 | 0.11 | 0.11 | 54 | 1018.6 |
| 20260831035631 | 60 | 123 | 6.0 | 9.0 | 0.00 | 0.11 | 0.11 | 58 | 1018.4 |
| 20260831034623 | 61 | 130 | 7.0 | 9.0 | 0.00 | 0.11 | 0.11 | 58 | 1018.4 |
| 20260831033615 | 61 | 141 | 5.0 | 9.0 | 0.00 | 0.11 | 0.11 | 57 | 1018.4 |
| 20260831032630 | 62 | 127 | 6.0 | 9.0 | 0.00 | 0.11 | 0.11 | 56 | 1018.3 |
| 20260831031640 | 62 | 111 | 7.0 | 10.0 | 0.00 | 0.11 | 0.11 | 55 | 1018.1 |
| 20260831030630 | 63 | 126 | 7.0 | 9.0 | 0.00 | 0.11 | 0.11 | 54 | 1018.0 |
| 20260831025614 | 63 | 128 | 6.0 | 8.0 | 0.00 | 0.11 | 0.11 | 53 | 1018.0 |
| 20260831024629 | 63 | 132 | 6.0 | 8.0 | 0.00 | 0.11 | 0.11 | 52 | 1017.7 |
| 20260831023620 | 64 | 140 | 4.0 | 7.0 | 0.00 | 0.11 | 0.11 | 51 | 1017.6 |
| 20260831022652 | 64 | 116 | 4.0 | 8.0 | 0.00 | 0.11 | 0.11 | 52 | 1017.5 |
| 20260831021643 | 65 | 140 | 4.0 | 5.0 | 0.00 | 0.11 | 0.11 | 51 | 1017.3 |
| 20260831020617 | 66 | 174 | 4.0 | 6.0 | 0.00 | 0.11 | 0.11 | 48 | 1017.2 |
| 20260831015620 | 67 | 267 | 0.0 | 0.0 | 0.00 | 0.11 | 0.11 | 47 | 1017.1 |
| 20260831014612 | 68 | 267 | 0.0 | 0.0 | 0.00 | 0.11 | 0.11 | 45 | 1017.1 |
| 20260831013622 | 68 | 267 | 0.0 | 2.0 | 0.00 | 0.11 | 0.11 | 46 | 1017.0 |
| 20260831012618 | 69 | 267 | 0.0 | 1.0 | 0.00 | 0.11 | 0.11 | 43 | 1017.1 |
| 20260831011630 | 70 | 267 | 1.0 | 2.0 | 0.00 | 0.11 | 0.11 | 42 | 1017.1 |
| 20260831010621 | 71 | 267 | 1.0 | 6.0 | 0.00 | 0.11 | 0.11 | 41 | 1017.1 |
| 20260831005623 | 71 | 273 | 2.0 | 6.0 | 0.00 | 0.11 | 0.11 | 39 | 1017.2 |
| 20260831004617 | 72 | 306 | 4.0 | 9.0 | 0.00 | 0.11 | 0.11 | 37 | 1017.1 |
| 20260831003628 | 73 | 275 | 3.0 | 7.0 | 0.00 | 0.11 | 0.11 | 36 | 1017.1 |
| 20260831002619 | 72 | 348 | 1.0 | 12.0 | 0.00 | 0.11 | 0.11 | 39 | 1017.1 |
| 20260831001630 | 73 | 169 | 3.0 | 8.0 | 0.00 | 0.11 | 0.11 | 32 | 1017.2 |
| 20260831000626 | 73 | 218 | 2.0 | 10.0 | 0.00 | 0.11 | 0.11 | 33 | 1017.1 |
| 20260830235631 | 74 | 271 | 3.0 | 10.0 | 0.00 | 0.11 | 0.11 | 33 | 1017.3 |
| 20260830234622 | 74 | 277 | 2.0 | 10.0 | 0.00 | 0.11 | 0.11 | 34 | 1017.2 |
| 20260830233613 | 73 | 244 | 6.0 | 13.0 | 0.00 | 0.11 | 0.11 | 35 | 1017.2 |
| 20260830232628 | 74 | 247 | 4.0 | 14.0 | 0.00 | 0.11 | 0.11 | 37 | 1017.2 |
| 20260830231619 | 74 | 284 | 4.0 | 9.0 | 0.00 | 0.11 | 0.11 | 39 | 1017.2 |
| 20260830230651 | 74 | 252 | 5.0 | 10.0 | 0.00 | 0.11 | 0.11 | 37 | 1017.1 |
| 20260830225613 | 74 | 255 | 5.0 | 13.0 | 0.00 | 0.11 | 0.11 | 36 | 1017.2 |
| 20260830224627 | 74 | 289 | 8.0 | 13.0 | 0.00 | 0.11 | 0.11 | 41 | 1017.0 |
| 20260830223617 | 75 | 317 | 8.0 | 14.0 | 0.00 | 0.11 | 0.11 | 37 | 1017.1 |
| 20260830222628 | 75 | 287 | 9.0 | 13.0 | 0.00 | 0.11 | 0.11 | 39 | 1017.3 |
| 20260830221620 | 74 | 275 | 8.0 | 14.0 | 0.00 | 0.11 | 0.11 | 38 | 1017.3 |
| 20260830220635 | 75 | 290 | 8.0 | 17.0 | 0.00 | 0.11 | 0.11 | 37 | 1017.3 |
| 20260830215638 | 76 | 257 | 6.0 | 16.0 | 0.00 | 0.11 | 0.11 | 33 | 1017.3 |
| 20260830214628 | 75 | 284 | 7.0 | 13.0 | 0.00 | 0.11 | 0.11 | 31 | 1017.5 |
| 20260830213619 | 75 | 275 | 9.0 | 16.0 | 0.00 | 0.11 | 0.11 | 30 | 1017.4 |
| 20260830212614 | 75 | 318 | 5.0 | 15.0 | 0.00 | 0.11 | 0.11 | 32 | 1017.5 |
| 20260830211624 | 74 | 295 | 6.0 | 12.0 | 0.00 | 0.11 | 0.11 | 34 | 1017.4 |
| 20260830210616 | 73 | 360 | 5.0 | 11.0 | 0.00 | 0.11 | 0.11 | 33 | 1017.4 |
| 20260830205639 | 74 | 150 | 8.0 | 16.0 | 0.00 | 0.11 | 0.11 | 34 | 1017.5 |
| 20260830204650 | 73 | 270 | 8.0 | 16.0 | 0.00 | 0.11 | 0.11 | 36 | 1017.8 |
| 20260830203623 | 73 | 130 | 6.0 | 14.0 | 0.00 | 0.11 | 0.11 | 36 | 1017.7 |
| 20260830202634 | 73 | 88 | 8.0 | 16.0 | 0.00 | 0.11 | 0.11 | 36 | 1017.7 |
| 20260830201624 | 72 | 134 | 5.0 | 13.0 | 0.00 | 0.11 | 0.11 | 39 | 1017.7 |
| 20260830200614 | 72 | 140 | 6.0 | 13.0 | 0.00 | 0.11 | 0.11 | 36 | 1017.8 |
| 20260830195621 | 72 | 288 | 5.0 | 15.0 | 0.00 | 0.11 | 0.11 | 39 | 1017.9 |
| 20260830194613 | 72 | 51 | 10.0 | 14.0 | 0.00 | 0.11 | 0.11 | 35 | 1017.8 |
| 20260830193643 | 72 | 224 | 7.0 | 13.0 | 0.00 | 0.11 | 0.11 | 37 | 1017.9 |
| 20260830192613 | 72 | 300 | 4.0 | 16.0 | 0.00 | 0.11 | 0.11 | 39 | 1017.8 |
| 20260830191629 | 71 | 296 | 5.0 | 12.0 | 0.00 | 0.11 | 0.11 | 41 | 1017.9 |
| 20260830190640 | 72 | 236 | 6.0 | 13.0 | 0.00 | 0.11 | 0.11 | 40 | 1017.9 |
| 20260830185623 | 72 | 315 | 6.0 | 18.0 | 0.00 | 0.14 | 0.11 | 40 | 1018.0 |
| 20260830184634 | 72 | 286 | 5.0 | 15.0 | 0.00 | 0.14 | 0.11 | 45 | 1017.9 |
| 20260830183628 | 70 | 280 | 4.0 | 8.0 | 0.00 | 0.14 | 0.11 | 50 | 1017.8 |
| 20260830182619 | 70 | 259 | 5.0 | 15.0 | 0.00 | 0.14 | 0.11 | 53 | 1017.9 |
| 20260830181631 | 69 | 287 | 4.0 | 9.0 | 0.00 | 0.14 | 0.11 | 51 | 1017.8 |
| 20260830180630 | 70 | 273 | 5.0 | 10.0 | 0.00 | 0.14 | 0.11 | 50 | 1017.8 |
| 20260830175617 | 71 | 274 | 5.0 | 11.0 | 0.00 | 0.23 | 0.11 | 52 | 1017.9 |
| 20260830174648 | 69 | 283 | 3.0 | 10.0 | 0.00 | 0.23 | 0.11 | 55 | 1017.9 |
| 20260830173619 | 68 | 153 | 3.0 | 6.0 | 0.00 | 0.23 | 0.11 | 52 | 1018.0 |
| 20260830172630 | 68 | 272 | 6.0 | 10.0 | 0.00 | 0.23 | 0.11 | 55 | 1017.9 |
| 20260830171642 | 67 | 267 | 1.0 | 7.0 | 0.00 | 0.23 | 0.11 | 55 | 1017.8 |
| 20260830170638 | 68 | 272 | 3.0 | 9.0 | 0.00 | 0.23 | 0.11 | 53 | 1017.9 |
| 20260830165620 | 68 | 307 | 3.0 | 9.0 | 0.00 | 0.23 | 0.11 | 53 | 1017.7 |
| 20260830164631 | 67 | 277 | 4.0 | 9.0 | 0.00 | 0.23 | 0.11 | 56 | 1017.6 |
| 20260830163622 | 67 | 207 | 4.0 | 8.0 | 0.00 | 0.23 | 0.11 | 51 | 1017.6 |
| 20260830162617 | 67 | 139 | 4.0 | 10.0 | 0.00 | 0.23 | 0.11 | 50 | 1017.6 |
| 20260830161628 | 66 | 127 | 6.0 | 11.0 | 0.00 | 0.23 | 0.11 | 55 | 1017.5 |
| 20260830160619 | 65 | 111 | 2.0 | 6.0 | 0.00 | 0.23 | 0.11 | 58 | 1017.6 |
| 20260830155626 | 65 | 136 | 1.0 | 9.0 | 0.00 | 0.28 | 0.11 | 57 | 1017.7 |
| 20260830154617 | 63 | 147 | 5.0 | 10.0 | 0.00 | 0.28 | 0.11 | 60 | 1017.5 |
| 20260830153628 | 62 | 184 | 0.0 | 0.0 | 0.00 | 0.28 | 0.11 | 68 | 1017.6 |
| 20260830152619 | 61 | 184 | 1.0 | 6.0 | 0.00 | 0.28 | 0.11 | 68 | 1017.6 |
| 20260830151614 | 61 | 148 | 1.0 | 6.0 | 0.00 | 0.28 | 0.11 | 65 | 1017.6 |
| 20260830150626 | 61 | 117 | 2.0 | 10.0 | 0.00 | 0.28 | 0.11 | 62 | 1017.5 |
| 20260830145629 | 61 | 261 | 3.0 | 10.0 | 0.00 | 0.35 | 0.11 | 64 | 1017.4 |
| 20260830144620 | 61 | 171 | 6.0 | 13.0 | 0.00 | 0.35 | 0.11 | 58 | 1016.5 |
| 20260830143616 | 61 | 149 | 4.0 | 8.0 | 0.00 | 0.35 | 0.11 | 64 | 1016.9 |
| 20260830142627 | 61 | 121 | 6.0 | 13.0 | 0.00 | 0.35 | 0.11 | 63 | 1017.2 |